Language: 


Des rapports , des résumés tant et plus, au choix de chacun....


Données Historiques de Météogheer
Journalier Rapport pour Mars 1, 2018 Unitée:  Métrique    Impériale   Les deux
Suivant Jour »
Journalier Hebdomadaire Mensuel Annuel Sur mesure
  Max: Min: Moyenne:
Température: 1.4 °C -5.5 °C -2 °C
Point de rosée: -10.0 °C -15.0 °C -12.6 °C
Humidité: 54% 38% 45%
Vent: 35.6km/h 9.7km/h 19km/h
Rafales: 38.5km/h - -
Vent- - ENE
Pression: 1007.0 hPa 994.1 hPa -
Pluie: 0.0 mm    
Historical Graphs
 
 
Données tabulaires pour Mars 1, 2018
Heure Température Point de rosée Pression Vent Vent Rafales Humidité Pluie Taux (Horaire) Conditions
00:03 -5.2 °C -15.0 °C 1007.0 hPa East 32.0 km/h 32.0 km/h 47% 0.0 mm
00:08 -5.2 °C -15.0 °C 1007.0 hPa NE 17.7 km/h 32.0 km/h 47% 0.0 mm
00:13 -5.2 °C -15.0 °C 1007.0 hPa ENE 21.6 km/h 32.0 km/h 47% 0.0 mm
00:18 -5.2 °C -15.0 °C 1007.0 hPa ENE 15.1 km/h 37.0 km/h 47% 0.0 mm
00:23 -5.2 °C -15.0 °C 1007.0 hPa ENE 14.8 km/h 37.0 km/h 47% 0.0 mm
00:28 -5.2 °C -15.0 °C 1007.0 hPa ENE 16.6 km/h 28.5 km/h 47% 0.0 mm
00:33 -5.2 °C -15.0 °C 1007.0 hPa ENE 21.2 km/h 28.5 km/h 47% 0.0 mm
00:38 -5.2 °C -15.0 °C 1007.0 hPa NE 16.3 km/h 32.0 km/h 47% 0.0 mm
00:43 -5.2 °C -15.0 °C 1007.0 hPa East 18.0 km/h 32.0 km/h 47% 0.0 mm
00:49 -5.2 °C -15.0 °C 1007.0 hPa ENE 22.4 km/h 32.0 km/h 47% 0.0 mm
00:54 -5.2 °C -15.0 °C 1007.0 hPa East 23.0 km/h 28.5 km/h 47% 0.0 mm
00:59 -5.2 °C -15.0 °C 1007.0 hPa East 15.4 km/h 28.5 km/h 47% 0.0 mm
01:04 -5.3 °C -15.0 °C 1007.0 hPa ENE 19.8 km/h 24.5 km/h 47% 0.0 mm
01:09 -5.3 °C -15.0 °C 1007.0 hPa ENE 23.3 km/h 28.5 km/h 47% 0.0 mm
01:14 -5.3 °C -15.0 °C 1007.0 hPa East 19.1 km/h 32.0 km/h 47% 0.0 mm
01:19 -5.3 °C -15.0 °C 1007.0 hPa NE 18.3 km/h 32.0 km/h 47% 0.0 mm
01:24 -5.3 °C -15.0 °C 1007.0 hPa NNE 27.0 km/h 28.0 km/h 47% 0.0 mm
01:29 -5.3 °C -15.0 °C 1007.0 hPa East 21.6 km/h 32.0 km/h 47% 0.0 mm
01:34 -5.3 °C -15.0 °C 1007.0 hPa East 12.6 km/h 32.0 km/h 47% 0.0 mm
01:39 -5.3 °C -15.0 °C 1007.0 hPa East 15.8 km/h 24.8 km/h 48% 0.0 mm
01:44 -5.3 °C -15.0 °C 1006.0 hPa East 27.4 km/h 27.4 km/h 48% 0.0 mm
01:49 -5.3 °C -15.0 °C 1006.0 hPa ENE 14.8 km/h 31.7 km/h 48% 0.0 mm
01:54 -5.4 °C -15.0 °C 1006.0 hPa East 23.8 km/h 31.7 km/h 48% 0.0 mm
01:59 -5.4 °C -15.0 °C 1006.0 hPa ENE 16.9 km/h 32.8 km/h 48% 0.0 mm
02:04 -5.4 °C -15.0 °C 1006.0 hPa ENE 21.9 km/h 32.8 km/h 48% 0.0 mm
02:09 -5.5 °C -15.0 °C 1006.0 hPa ENE 24.8 km/h 32.0 km/h 48% 0.0 mm
02:14 -5.5 °C -15.0 °C 1006.0 hPa ENE 21.2 km/h 32.0 km/h 48% 0.0 mm
02:19 -5.5 °C -15.0 °C 1006.0 hPa East 21.2 km/h 28.0 km/h 48% 0.0 mm
02:24 -5.5 °C -15.0 °C 1006.0 hPa NE 17.7 km/h 28.5 km/h 48% 0.0 mm
02:29 -5.5 °C -15.0 °C 1006.0 hPa East 20.6 km/h 31.4 km/h 48% 0.0 mm
02:34 -5.5 °C -15.0 °C 1006.0 hPa East 28.5 km/h 31.4 km/h 48% 0.0 mm
02:39 -5.5 °C -15.0 °C 1006.0 hPa East 35.6 km/h 35.6 km/h 48% 0.0 mm
02:44 -5.5 °C -15.0 °C 1006.0 hPa ENE 20.9 km/h 35.6 km/h 49% 0.0 mm
02:49 -5.5 °C -15.0 °C 1006.0 hPa East 21.2 km/h 28.5 km/h 49% 0.0 mm
02:54 -5.5 °C -15.0 °C 1006.0 hPa East 18.3 km/h 32.0 km/h 49% 0.0 mm
02:59 -5.4 °C -15.0 °C 1005.0 hPa NNE 26.2 km/h 32.0 km/h 49% 0.0 mm
03:05 -5.4 °C -15.0 °C 1005.0 hPa NNE 21.2 km/h 28.0 km/h 49% 0.0 mm
03:10 -5.4 °C -15.0 °C 1005.0 hPa ENE 20.1 km/h 28.5 km/h 49% 0.0 mm
03:15 -5.4 °C -15.0 °C 1005.0 hPa ENE 14.3 km/h 28.5 km/h 49% 0.0 mm
03:20 -5.4 °C -15.0 °C 1005.0 hPa NE 28.5 km/h 28.5 km/h 49% 0.0 mm
03:25 -5.4 °C -15.0 °C 1005.0 hPa NE 24.5 km/h 29.9 km/h 49% 0.0 mm
03:30 -5.3 °C -15.0 °C 1005.0 hPa NE 23.3 km/h 29.9 km/h 49% 0.0 mm
03:35 -5.3 °C -15.0 °C 1005.0 hPa ENE 22.4 km/h 28.5 km/h 49% 0.0 mm
03:40 -5.3 °C -15.0 °C 1005.0 hPa ENE 20.9 km/h 28.8 km/h 49% 0.0 mm
03:45 -5.3 °C -15.0 °C 1005.0 hPa ENE 17.2 km/h 32.3 km/h 49% 0.0 mm
03:50 -5.3 °C -15.0 °C 1005.0 hPa East 24.8 km/h 36.0 km/h 49% 0.0 mm
03:55 -5.3 °C -15.0 °C 1005.0 hPa ENE 20.1 km/h 36.0 km/h 49% 0.0 mm
04:00 -5.3 °C -15.0 °C 1003.9 hPa East 22.4 km/h 31.7 km/h 49% 0.0 mm
04:06 -5.3 °C -15.0 °C 1003.9 hPa ENE 16.9 km/h 31.7 km/h 49% 0.0 mm
04:11 -5.3 °C -15.0 °C 1003.9 hPa East 17.7 km/h 24.8 km/h 49% 0.0 mm
04:16 -5.2 °C -15.0 °C 1003.9 hPa NNE 24.5 km/h 28.8 km/h 49% 0.0 mm
04:21 -5.2 °C -15.0 °C 1003.9 hPa East 23.8 km/h 28.8 km/h 49% 0.0 mm
04:26 -5.2 °C -15.0 °C 1003.9 hPa ENE 21.2 km/h 28.5 km/h 49% 0.0 mm
04:31 -5.2 °C -15.0 °C 1003.9 hPa NE 18.0 km/h 28.5 km/h 49% 0.0 mm
04:36 -5.2 °C -15.0 °C 1003.9 hPa ENE 16.3 km/h 30.9 km/h 49% 0.0 mm
04:41 -5.2 °C -15.0 °C 1003.9 hPa NE 17.2 km/h 36.7 km/h 49% 0.0 mm
04:46 -5.2 °C -15.0 °C 1002.9 hPa East 12.2 km/h 36.7 km/h 49% 0.0 mm
04:51 -5.1 °C -15.0 °C 1002.9 hPa ENE 15.1 km/h 26.2 km/h 49% 0.0 mm
04:56 -5.1 °C -15.0 °C 1002.9 hPa NE 18.0 km/h 32.3 km/h 49% 0.0 mm
05:01 -5.1 °C -15.0 °C 1002.9 hPa East 19.1 km/h 32.3 km/h 49% 0.0 mm
05:06 -5.1 °C -15.0 °C 1002.9 hPa East 20.6 km/h 28.5 km/h 49% 0.0 mm
05:11 -5.1 °C -15.0 °C 1002.9 hPa ENE 16.9 km/h 31.7 km/h 48% 0.0 mm
05:16 -5.1 °C -15.0 °C 1002.9 hPa East 21.2 km/h 31.7 km/h 48% 0.0 mm
05:21 -5.1 °C -15.0 °C 1002.9 hPa ENE 15.4 km/h 28.8 km/h 49% 0.0 mm
05:26 -5.1 °C -15.0 °C 1002.9 hPa East 20.6 km/h 24.5 km/h 49% 0.0 mm
05:31 -5.1 °C -15.0 °C 1002.9 hPa East 20.6 km/h 27.7 km/h 49% 0.0 mm
05:36 -5.1 °C -15.0 °C 1002.9 hPa NE 17.7 km/h 30.2 km/h 49% 0.0 mm
05:41 -5.1 °C -15.0 °C 1002.9 hPa ESE 16.9 km/h 30.2 km/h 49% 0.0 mm
05:46 -5.0 °C -15.0 °C 1002.9 hPa ENE 13.7 km/h 29.1 km/h 49% 0.0 mm
05:51 -5.1 °C -14.0 °C 1002.9 hPa ENE 12.2 km/h 25.9 km/h 50% 0.0 mm
05:56 -5.1 °C -14.0 °C 1002.9 hPa East 16.3 km/h 30.6 km/h 50% 0.0 mm
06:01 -5.1 °C -14.0 °C 1001.9 hPa East 13.7 km/h 30.6 km/h 51% 0.0 mm
06:06 -5.1 °C -14.0 °C 1001.9 hPa ENE 19.8 km/h 28.8 km/h 51% 0.0 mm
06:11 -5.1 °C -14.0 °C 1001.9 hPa East 12.6 km/h 28.0 km/h 51% 0.0 mm
06:16 -5.1 °C -14.0 °C 1002.9 hPa ENE 16.6 km/h 28.5 km/h 52% 0.0 mm
06:21 -5.1 °C -14.0 °C 1002.9 hPa ENE 17.7 km/h 28.5 km/h 52% 0.0 mm
06:27 -5.1 °C -14.0 °C 1002.9 hPa ENE 20.6 km/h 25.9 km/h 52% 0.0 mm
06:32 -5.1 °C -14.0 °C 1001.9 hPa NE 16.9 km/h 28.5 km/h 52% 0.0 mm
06:37 -5.1 °C -14.0 °C 1001.9 hPa East 19.1 km/h 28.5 km/h 52% 0.0 mm
06:42 -5.1 °C -14.0 °C 1001.9 hPa NE 20.1 km/h 32.8 km/h 52% 0.0 mm
06:47 -5.1 °C -14.0 °C 1002.9 hPa NE 12.6 km/h 32.8 km/h 53% 0.0 mm
06:52 -5.1 °C -14.0 °C 1002.9 hPa East 16.3 km/h 28.0 km/h 53% 0.0 mm
06:57 -5.0 °C -14.0 °C 1002.9 hPa East 19.8 km/h 28.0 km/h 52% 0.0 mm
07:02 -5.0 °C -14.0 °C 1001.9 hPa East 17.7 km/h 30.9 km/h 51% 0.0 mm
07:07 -4.9 °C -14.0 °C 1001.9 hPa ENE 22.4 km/h 28.5 km/h 50% 0.0 mm
07:12 -4.8 °C -14.0 °C 1001.9 hPa NE 24.8 km/h 24.8 km/h 50% 0.0 mm
07:17 -4.8 °C -14.0 °C 1001.9 hPa East 17.2 km/h 28.0 km/h 49% 0.0 mm
07:22 -4.8 °C -14.0 °C 1001.9 hPa East 27.4 km/h 28.0 km/h 49% 0.0 mm
07:27 -4.8 °C -14.0 °C 1001.9 hPa ENE 20.1 km/h 27.4 km/h 49% 0.0 mm
07:32 -4.8 °C -14.0 °C 1001.9 hPa ENE 20.9 km/h 37.5 km/h 49% 0.0 mm
07:38 -4.7 °C -14.0 °C 1001.9 hPa NE 16.3 km/h 37.5 km/h 49% 0.0 mm
07:43 -4.7 °C -14.0 °C 1001.9 hPa East 16.9 km/h 23.0 km/h 49% 0.0 mm
07:48 -4.7 °C -14.0 °C 1000.9 hPa East 16.3 km/h 26.2 km/h 49% 0.0 mm
07:53 -4.7 °C -14.0 °C 1000.9 hPa East 22.7 km/h 26.2 km/h 48% 0.0 mm
07:58 -4.7 °C -14.0 °C 1000.9 hPa ENE 20.6 km/h 26.2 km/h 48% 0.0 mm
08:03 -4.7 °C -14.0 °C 1000.9 hPa East 15.4 km/h 24.8 km/h 48% 0.0 mm
08:08 -4.6 °C -14.0 °C 1000.9 hPa ENE 19.8 km/h 24.8 km/h 48% 0.0 mm
08:13 -4.6 °C -14.0 °C 1000.9 hPa NE 20.1 km/h 28.5 km/h 48% 0.0 mm
08:18 -4.6 °C -14.0 °C 1000.9 hPa ENE 18.3 km/h 31.4 km/h 48% 0.0 mm
08:23 -4.5 °C -14.0 °C 1000.9 hPa NE 23.3 km/h 31.4 km/h 48% 0.0 mm
08:28 -4.5 °C -14.0 °C 1000.9 hPa East 27.7 km/h 27.7 km/h 48% 0.0 mm
08:33 -4.5 °C -14.0 °C 1001.9 hPa East 28.0 km/h 28.0 km/h 48% 0.0 mm
08:38 -4.5 °C -14.0 °C 1001.9 hPa ENE 19.8 km/h 30.9 km/h 49% 0.0 mm
08:43 -4.6 °C -14.0 °C 1001.9 hPa ESE 17.2 km/h 30.9 km/h 50% 0.0 mm
08:48 -4.6 °C -13.0 °C 1001.9 hPa ENE 20.6 km/h 27.4 km/h 52% 0.0 mm
08:53 -4.6 °C -13.0 °C 1001.9 hPa ENE 13.0 km/h 24.5 km/h 52% 0.0 mm
08:58 -4.6 °C -13.0 °C 1001.9 hPa East 20.6 km/h 26.2 km/h 53% 0.0 mm
09:03 -4.6 °C -13.0 °C 1000.9 hPa ENE 19.8 km/h 26.2 km/h 54% 0.0 mm
09:08 -4.6 °C -13.0 °C 1000.9 hPa East 24.8 km/h 24.8 km/h 54% 0.0 mm
09:13 -4.5 °C -13.0 °C 1000.9 hPa ENE 13.7 km/h 27.4 km/h 53% 0.0 mm
09:18 -4.4 °C -13.0 °C 1000.9 hPa East 21.2 km/h 28.5 km/h 53% 0.0 mm
09:19 -4.4 °C -13.0 °C 1000.9 hPa East 16.6 km/h 28.5 km/h 53% 0.0 mm
09:24 -4.3 °C -13.0 °C 1000.9 hPa East 23.8 km/h 29.9 km/h 52% 0.0 mm
09:29 -4.2 °C -13.0 °C 1000.9 hPa East 18.3 km/h 32.8 km/h 52% 0.0 mm
09:34 -4.2 °C -13.0 °C 1000.9 hPa ESE 25.6 km/h 32.8 km/h 51% 0.0 mm
09:37 -4.2 °C -13.0 °C 1000.9 hPa ENE 19.8 km/h 29.9 km/h 51% 0.0 mm
09:42 -4.1 °C -13.0 °C 1000.9 hPa ENE 12.6 km/h 29.9 km/h 51% 0.0 mm
09:47 -4.1 °C -13.0 °C 1000.9 hPa East 16.3 km/h 27.4 km/h 51% 0.0 mm
09:52 -4.1 °C -13.0 °C 1000.9 hPa East 21.2 km/h 25.6 km/h 51% 0.0 mm
09:57 -4.0 °C -13.0 °C 1000.9 hPa East 23.8 km/h 25.6 km/h 51% 0.0 mm
10:02 -3.9 °C -13.0 °C 1000.9 hPa East 17.7 km/h 27.7 km/h 50% 0.0 mm
10:08 -3.9 °C -13.0 °C 1000.9 hPa East 24.8 km/h 28.5 km/h 49% 0.0 mm
10:13 -3.9 °C -13.0 °C 1000.9 hPa ENE 17.2 km/h 29.9 km/h 49% 0.0 mm
10:18 -3.8 °C -13.0 °C 1000.9 hPa East 27.4 km/h 30.6 km/h 49% 0.0 mm
10:19 -3.8 °C -13.0 °C 1000.9 hPa ENE 17.2 km/h 30.6 km/h 50% 0.0 mm
10:24 -3.7 °C -13.0 °C 1000.9 hPa ESE 10.1 km/h 30.6 km/h 49% 0.0 mm
10:29 -3.6 °C -13.0 °C 1000.9 hPa ESE 13.7 km/h 27.0 km/h 50% 0.0 mm
10:34 -3.6 °C -13.0 °C 1000.9 hPa ENE 16.6 km/h 23.8 km/h 49% 0.0 mm
10:35 -3.5 °C -13.0 °C 1000.9 hPa ESE 19.8 km/h 23.8 km/h 49% 0.0 mm
10:39 -3.5 °C -13.0 °C 1000.9 hPa ENE 16.9 km/h 28.5 km/h 49% 0.0 mm
10:40 -3.5 °C -13.0 °C 1000.9 hPa East 17.7 km/h 28.5 km/h 49% 0.0 mm
10:45 -3.5 °C -13.0 °C 1000.9 hPa ENE 21.2 km/h 32.0 km/h 48% 0.0 mm
10:50 -3.4 °C -13.0 °C 1000.9 hPa East 21.2 km/h 32.0 km/h 49% 0.0 mm
10:55 -3.4 °C -13.0 °C 1000.9 hPa East 19.8 km/h 38.5 km/h 49% 0.0 mm
11:00 -3.3 °C -13.0 °C 1000.9 hPa East 12.6 km/h 38.5 km/h 49% 0.0 mm
11:05 -3.2 °C -13.0 °C 1000.9 hPa East 17.2 km/h 28.5 km/h 49% 0.0 mm
11:10 -3.1 °C -13.0 °C 1000.9 hPa ESE 17.2 km/h 31.7 km/h 49% 0.0 mm
11:15 -2.9 °C -13.0 °C 1000.9 hPa ESE 16.6 km/h 31.7 km/h 49% 0.0 mm
11:20 -2.8 °C -12.0 °C 1000.9 hPa ENE 15.8 km/h 28.0 km/h 50% 0.0 mm
11:25 -2.8 °C -12.0 °C 1000.9 hPa East 20.1 km/h 29.9 km/h 50% 0.0 mm
11:30 -2.7 °C -12.0 °C 1000.9 hPa ENE 27.0 km/h 29.9 km/h 49% 0.0 mm
11:35 -2.5 °C -12.0 °C 1000.9 hPa ESE 20.9 km/h 28.0 km/h 49% 0.0 mm
11:40 -2.4 °C -12.0 °C 1000.9 hPa East 23.3 km/h 34.3 km/h 49% 0.0 mm
11:45 -2.3 °C -12.0 °C 1000.9 hPa NE 9.7 km/h 34.3 km/h 48% 0.0 mm
11:50 -2.2 °C -12.0 °C 1000.9 hPa East 14.0 km/h 24.8 km/h 48% 0.0 mm
11:56 -2.2 °C -12.0 °C 1000.9 hPa East 17.2 km/h 27.4 km/h 47% 0.0 mm
12:01 -2.1 °C -12.0 °C 1000.9 hPa ENE 21.2 km/h 29.1 km/h 47% 0.0 mm
12:06 -1.9 °C -12.0 °C 1000.9 hPa ENE 20.9 km/h 29.1 km/h 46% 0.0 mm
12:11 -1.8 °C -12.0 °C 1000.9 hPa East 23.3 km/h 28.0 km/h 46% 0.0 mm
12:16 -1.6 °C -12.0 °C 999.9 hPa ESE 25.3 km/h 28.0 km/h 46% 0.0 mm
12:21 -1.6 °C -12.0 °C 999.9 hPa ENE 24.8 km/h 32.0 km/h 45% 0.0 mm
12:26 -1.4 °C -12.0 °C 999.9 hPa East 20.1 km/h 32.0 km/h 45% 0.0 mm
12:31 -1.2 °C -12.0 °C 998.9 hPa East 16.6 km/h 33.1 km/h 45% 0.0 mm
12:36 -1.1 °C -12.0 °C 998.9 hPa ENE 17.2 km/h 33.1 km/h 45% 0.0 mm
12:41 -0.9 °C -12.0 °C 998.9 hPa ENE 18.0 km/h 28.5 km/h 45% 0.0 mm
12:46 -0.8 °C -12.0 °C 998.9 hPa East 16.3 km/h 28.5 km/h 44% 0.0 mm
12:51 -0.8 °C -12.0 °C 998.9 hPa East 19.8 km/h 26.7 km/h 44% 0.0 mm
12:56 -0.7 °C -12.0 °C 998.9 hPa ESE 20.9 km/h 28.0 km/h 44% 0.0 mm
13:01 -0.5 °C -12.0 °C 998.9 hPa ENE 16.3 km/h 28.5 km/h 44% 0.0 mm
13:06 -0.4 °C -12.0 °C 998.9 hPa ENE 23.8 km/h 28.5 km/h 44% 0.0 mm
13:11 -0.3 °C -12.0 °C 998.9 hPa East 19.8 km/h 30.6 km/h 44% 0.0 mm
13:16 -0.2 °C -11.0 °C 998.9 hPa NE 24.5 km/h 32.3 km/h 44% 0.0 mm
13:21 -0.1 °C -11.0 °C 998.9 hPa NE 17.7 km/h 32.3 km/h 44% 0.0 mm
13:26 0.2 °C -10.0 °C 998.9 hPa East 13.7 km/h 28.5 km/h 44% 0.0 mm
13:31 0.3 °C -11.0 °C 998.9 hPa East 20.6 km/h 27.7 km/h 43% 0.0 mm
13:36 0.3 °C -11.0 °C 998.9 hPa ENE 20.1 km/h 28.0 km/h 43% 0.0 mm
13:41 0.3 °C -11.0 °C 998.9 hPa East 22.7 km/h 32.0 km/h 43% 0.0 mm
13:46 0.3 °C -11.0 °C 998.9 hPa East 20.9 km/h 32.0 km/h 43% 0.0 mm
13:51 0.3 °C -11.0 °C 998.9 hPa East 25.3 km/h 31.4 km/h 43% 0.0 mm
13:56 0.3 °C -11.0 °C 998.9 hPa ESE 28.5 km/h 31.4 km/h 42% 0.0 mm
14:01 0.3 °C -11.0 °C 998.9 hPa ENE 16.3 km/h 28.5 km/h 42% 0.0 mm
14:06 0.3 °C -11.0 °C 998.9 hPa East 19.8 km/h 26.7 km/h 42% 0.0 mm
14:12 0.3 °C -11.0 °C 998.9 hPa ENE 13.7 km/h 26.7 km/h 42% 0.0 mm
14:17 0.3 °C -11.0 °C 998.9 hPa ESE 13.7 km/h 25.6 km/h 42% 0.0 mm
14:22 0.3 °C -11.0 °C 998.9 hPa East 19.8 km/h 24.8 km/h 42% 0.0 mm
14:27 0.4 °C -11.0 °C 998.9 hPa NE 10.5 km/h 24.8 km/h 42% 0.0 mm
14:32 0.4 °C -11.0 °C 997.9 hPa ENE 25.6 km/h 27.7 km/h 42% 0.0 mm
14:37 0.5 °C -11.0 °C 997.9 hPa ESE 22.4 km/h 27.7 km/h 42% 0.0 mm
14:42 0.6 °C -11.0 °C 997.9 hPa East 13.0 km/h 26.7 km/h 42% 0.0 mm
14:47 0.6 °C -11.0 °C 997.9 hPa East 15.4 km/h 23.8 km/h 42% 0.0 mm
14:52 0.7 °C -11.0 °C 997.9 hPa East 24.5 km/h 32.0 km/h 42% 0.0 mm
14:57 0.7 °C -11.0 °C 997.9 hPa East 15.8 km/h 32.0 km/h 42% 0.0 mm
15:02 0.8 °C -11.0 °C 997.9 hPa NE 20.1 km/h 25.6 km/h 41% 0.0 mm
15:07 0.8 °C -11.0 °C 997.9 hPa ENE 17.2 km/h 28.5 km/h 41% 0.0 mm
15:12 0.9 °C -11.0 °C 997.9 hPa ESE 19.8 km/h 28.5 km/h 41% 0.0 mm
15:17 0.9 °C -11.0 °C 996.8 hPa East 15.8 km/h 28.5 km/h 41% 0.0 mm
15:22 0.9 °C -11.0 °C 996.8 hPa East 14.3 km/h 27.0 km/h 41% 0.0 mm
15:27 1.0 °C -11.0 °C 996.8 hPa East 21.6 km/h 28.0 km/h 41% 0.0 mm
15:32 1.0 °C -11.0 °C 996.8 hPa NE 12.2 km/h 28.0 km/h 40% 0.0 mm
15:37 1.1 °C -11.0 °C 996.8 hPa East 18.0 km/h 28.0 km/h 41% 0.0 mm
15:42 1.0 °C -11.0 °C 996.8 hPa ENE 20.1 km/h 29.1 km/h 40% 0.0 mm
15:48 1.0 °C -11.0 °C 996.8 hPa ENE 12.6 km/h 29.1 km/h 40% 0.0 mm
15:53 1.0 °C -11.0 °C 996.8 hPa East 19.8 km/h 27.7 km/h 40% 0.0 mm
15:58 1.0 °C -11.0 °C 996.8 hPa East 20.9 km/h 30.9 km/h 40% 0.0 mm
16:03 1.0 °C -11.0 °C 996.8 hPa East 16.3 km/h 30.9 km/h 40% 0.0 mm
16:08 1.0 °C -11.0 °C 996.8 hPa NE 16.9 km/h 27.4 km/h 40% 0.0 mm
16:13 1.0 °C -11.0 °C 996.8 hPa East 20.1 km/h 24.8 km/h 40% 0.0 mm
16:18 1.0 °C -11.0 °C 996.8 hPa ENE 12.6 km/h 26.7 km/h 40% 0.0 mm
16:23 1.0 °C -11.0 °C 996.8 hPa East 19.8 km/h 31.4 km/h 40% 0.0 mm
16:28 1.0 °C -11.0 °C 996.8 hPa NE 23.8 km/h 31.4 km/h 40% 0.0 mm
16:33 1.0 °C -11.0 °C 996.8 hPa East 13.0 km/h 28.5 km/h 40% 0.0 mm
16:38 1.0 °C -11.0 °C 996.8 hPa East 11.9 km/h 25.9 km/h 40% 0.0 mm
16:43 1.0 °C -11.0 °C 996.8 hPa ENE 19.1 km/h 24.8 km/h 40% 0.0 mm
16:48 1.1 °C -11.0 °C 996.8 hPa East 20.6 km/h 24.8 km/h 40% 0.0 mm
16:53 1.1 °C -11.0 °C 996.8 hPa ESE 17.2 km/h 31.7 km/h 40% 0.0 mm
16:58 1.2 °C -11.0 °C 996.8 hPa ENE 21.2 km/h 31.7 km/h 40% 0.0 mm
17:03 1.3 °C -11.0 °C 996.8 hPa ENE 16.6 km/h 26.7 km/h 40% 0.0 mm
17:08 1.3 °C -11.0 °C 996.8 hPa East 20.6 km/h 27.7 km/h 40% 0.0 mm
17:13 1.3 °C -11.0 °C 996.8 hPa ENE 16.9 km/h 28.8 km/h 40% 0.0 mm
17:18 1.4 °C -11.0 °C 996.8 hPa ENE 16.9 km/h 28.8 km/h 40% 0.0 mm
17:23 1.4 °C -11.0 °C 996.8 hPa ENE 19.8 km/h 24.8 km/h 40% 0.0 mm
17:28 1.4 °C -11.0 °C 996.8 hPa ESE 20.6 km/h 21.6 km/h 40% 0.0 mm
17:33 1.4 °C -11.0 °C 996.8 hPa East 17.7 km/h 27.4 km/h 40% 0.0 mm
17:38 1.4 °C -11.0 °C 996.8 hPa East 16.3 km/h 27.7 km/h 40% 0.0 mm
17:43 1.4 °C -11.0 °C 996.8 hPa ENE 20.6 km/h 27.7 km/h 40% 0.0 mm
17:48 1.4 °C -11.0 °C 996.8 hPa East 16.9 km/h 25.6 km/h 40% 0.0 mm
17:53 1.4 °C -11.0 °C 996.8 hPa East 19.8 km/h 23.0 km/h 40% 0.0 mm
17:58 1.4 °C -11.0 °C 996.8 hPa ENE 14.0 km/h 27.4 km/h 39% 0.0 mm
18:03 1.4 °C -11.0 °C 996.2 hPa ENE 17.2 km/h 27.4 km/h 40% 0.0 mm
18:09 1.4 °C -11.0 °C 996.2 hPa East 20.1 km/h 31.4 km/h 39% 0.0 mm
18:14 1.4 °C -11.0 °C 996.2 hPa East 20.6 km/h 31.4 km/h 39% 0.0 mm
18:19 1.4 °C -11.0 °C 996.2 hPa NNE 16.3 km/h 35.6 km/h 40% 0.0 mm
18:24 1.4 °C -11.0 °C 996.2 hPa ENE 14.0 km/h 35.6 km/h 40% 0.0 mm
18:29 1.4 °C -11.0 °C 995.1 hPa East 12.2 km/h 25.6 km/h 39% 0.0 mm
18:34 1.4 °C -11.0 °C 995.1 hPa East 16.3 km/h 21.6 km/h 39% 0.0 mm
18:39 1.4 °C -11.0 °C 995.1 hPa ENE 19.8 km/h 22.4 km/h 39% 0.0 mm
18:44 1.4 °C -11.0 °C 995.1 hPa East 23.0 km/h 32.0 km/h 39% 0.0 mm
18:49 1.4 °C -11.0 °C 995.1 hPa East 15.1 km/h 32.0 km/h 39% 0.0 mm
18:54 1.4 °C -11.0 °C 995.1 hPa ENE 21.2 km/h 38.1 km/h 39% 0.0 mm
18:59 1.4 °C -11.0 °C 996.2 hPa East 18.0 km/h 38.1 km/h 39% 0.0 mm
19:04 1.4 °C -11.0 °C 996.2 hPa East 12.6 km/h 31.7 km/h 39% 0.0 mm
19:09 1.4 °C -11.0 °C 996.2 hPa ENE 20.6 km/h 28.5 km/h 39% 0.0 mm
19:14 1.4 °C -11.0 °C 996.2 hPa East 20.9 km/h 28.5 km/h 39% 0.0 mm
19:19 1.4 °C -11.0 °C 996.2 hPa ENE 17.2 km/h 28.5 km/h 39% 0.0 mm
19:24 1.4 °C -11.0 °C 996.2 hPa NE 16.9 km/h 28.5 km/h 39% 0.0 mm
19:29 1.3 °C -11.0 °C 996.2 hPa ENE 27.4 km/h 29.1 km/h 39% 0.0 mm
19:34 1.3 °C -11.0 °C 996.2 hPa East 15.8 km/h 31.4 km/h 39% 0.0 mm
19:39 1.3 °C -11.0 °C 996.2 hPa ENE 27.4 km/h 31.4 km/h 39% 0.0 mm
19:44 1.3 °C -11.0 °C 995.1 hPa ENE 21.2 km/h 33.5 km/h 39% 0.0 mm
19:49 1.3 °C -11.0 °C 995.1 hPa East 19.8 km/h 33.5 km/h 39% 0.0 mm
19:54 1.3 °C -11.0 °C 995.1 hPa ENE 16.6 km/h 28.5 km/h 39% 0.0 mm
19:59 1.3 °C -11.0 °C 995.1 hPa ENE 25.6 km/h 28.5 km/h 39% 0.0 mm
20:04 1.3 °C -11.0 °C 995.1 hPa NE 16.3 km/h 25.6 km/h 39% 0.0 mm
20:09 1.3 °C -11.0 °C 995.1 hPa ESE 20.1 km/h 28.5 km/h 38% 0.0 mm
20:15 1.3 °C -11.0 °C 995.1 hPa ENE 14.3 km/h 28.5 km/h 39% 0.0 mm
20:20 1.3 °C -11.0 °C 995.1 hPa ESE 23.0 km/h 32.3 km/h 38% 0.0 mm
20:25 1.3 °C -11.0 °C 995.1 hPa East 21.2 km/h 32.3 km/h 38% 0.0 mm
20:30 1.3 °C -11.0 °C 995.1 hPa ENE 24.5 km/h 27.4 km/h 39% 0.0 mm
20:35 1.3 °C -11.0 °C 995.1 hPa East 23.3 km/h 27.4 km/h 38% 0.0 mm
20:40 1.3 °C -11.0 °C 995.1 hPa East 17.7 km/h 29.9 km/h 38% 0.0 mm
20:45 1.3 °C -11.0 °C 995.1 hPa East 20.6 km/h 29.9 km/h 38% 0.0 mm
20:50 1.3 °C -11.0 °C 995.1 hPa East 17.2 km/h 27.0 km/h 38% 0.0 mm
20:55 1.3 °C -11.0 °C 995.1 hPa East 19.8 km/h 28.5 km/h 38% 0.0 mm
21:00 1.3 °C -11.0 °C 994.1 hPa East 16.9 km/h 29.1 km/h 38% 0.0 mm
21:05 1.3 °C -11.0 °C 994.1 hPa East 11.9 km/h 29.1 km/h 38% 0.0 mm
21:10 1.3 °C -11.0 °C 994.1 hPa East 14.0 km/h 24.5 km/h 38% 0.0 mm
21:15 1.3 °C -11.0 °C 995.1 hPa ENE 12.6 km/h 28.5 km/h 38% 0.0 mm
21:20 1.3 °C -11.0 °C 995.1 hPa ENE 17.7 km/h 28.5 km/h 38% 0.0 mm
21:25 1.3 °C -11.0 °C 995.1 hPa ENE 19.8 km/h 21.6 km/h 38% 0.0 mm
21:31 1.3 °C -11.0 °C 994.1 hPa East 21.9 km/h 27.0 km/h 38% 0.0 mm
21:36 1.3 °C -11.0 °C 994.1 hPa ENE 16.3 km/h 27.0 km/h 38% 0.0 mm
21:41 1.2 °C -11.0 °C 994.1 hPa East 13.7 km/h 20.9 km/h 39% 0.0 mm
21:46 1.3 °C -11.0 °C 995.1 hPa ESE 22.4 km/h 28.5 km/h 38% 0.0 mm
21:51 1.3 °C -11.0 °C 995.1 hPa ENE 20.1 km/h 28.5 km/h 38% 0.0 mm
21:56 1.2 °C -11.0 °C 995.1 hPa East 13.7 km/h 28.0 km/h 39% 0.0 mm
22:01 1.2 °C -11.0 °C 995.1 hPa East 12.6 km/h 24.8 km/h 38% 0.0 mm
22:06 1.2 °C -11.0 °C 995.1 hPa ENE 17.7 km/h 27.4 km/h 38% 0.0 mm
22:11 1.2 °C -11.0 °C 995.1 hPa ENE 12.2 km/h 27.4 km/h 39% 0.0 mm
22:16 1.2 °C -11.0 °C 996.2 hPa ESE 17.2 km/h 23.3 km/h 39% 0.0 mm
22:21 1.2 °C -11.0 °C 996.2 hPa East 17.7 km/h 26.7 km/h 39% 0.0 mm
22:26 1.2 °C -11.0 °C 996.2 hPa NNE 23.3 km/h 26.7 km/h 39% 0.0 mm
22:31 1.1 °C -11.0 °C 994.1 hPa ENE 14.0 km/h 27.7 km/h 39% 0.0 mm
22:36 1.1 °C -11.0 °C 994.1 hPa East 16.9 km/h 27.7 km/h 39% 0.0 mm
22:41 1.1 °C -11.0 °C 994.1 hPa ENE 21.2 km/h 24.5 km/h 39% 0.0 mm
22:46 1.1 °C -11.0 °C 994.1 hPa East 16.3 km/h 24.5 km/h 39% 0.0 mm
22:51 1.0 °C -11.0 °C 994.1 hPa East 15.8 km/h 24.5 km/h 39% 0.0 mm
22:56 1.0 °C -11.0 °C 994.1 hPa East 24.8 km/h 24.8 km/h 39% 0.0 mm
23:01 1.0 °C -11.0 °C 994.1 hPa NE 17.7 km/h 32.0 km/h 39% 0.0 mm
23:06 1.0 °C -11.0 °C 994.1 hPa East 20.1 km/h 32.0 km/h 39% 0.0 mm
23:11 0.9 °C -11.0 °C 994.1 hPa NE 12.2 km/h 32.0 km/h 40% 0.0 mm
23:16 0.9 °C -11.0 °C 994.1 hPa East 19.8 km/h 26.7 km/h 40% 0.0 mm
23:21 0.9 °C -11.0 °C 994.1 hPa ENE 19.1 km/h 26.7 km/h 40% 0.0 mm
23:26 0.9 °C -11.0 °C 994.1 hPa ENE 22.4 km/h 28.0 km/h 40% 0.0 mm
23:31 0.9 °C -11.0 °C 994.1 hPa ENE 14.8 km/h 28.0 km/h 40% 0.0 mm
23:36 0.8 °C -11.0 °C 994.1 hPa East 15.1 km/h 24.5 km/h 40% 0.0 mm
23:41 0.8 °C -11.0 °C 994.1 hPa ENE 17.2 km/h 23.8 km/h 40% 0.0 mm
23:46 0.8 °C -11.0 °C 994.1 hPa ENE 21.2 km/h 27.7 km/h 40% 0.0 mm
23:51 0.8 °C -11.0 °C 994.1 hPa East 12.6 km/h 27.7 km/h 40% 0.0 mm
23:56 0.8 °C -11.0 °C 994.1 hPa East 24.5 km/h 24.5 km/h 40% 0.0 mm
Données Historique de Météo Turbie

Mise a jour : 18/06/2018 01:51:13
Généré par Cumulus 1.9.4 (1099)